755  
ASUS41 KLWX 222211  
RWRLWX  
 
REGIONAL WEATHER ROUNDUP  
NATIONAL WEATHER SERVICE BALTIMORE MD/WASHINGTON DC  
500 PM EST FRI FEB 22 2019  
 
NOTE: "FAIR" INDICATES FEW OR NO CLOUDS BELOW 12,000 FEET  
WITH NO SIGNIFICANT WEATHER AND/OR S TO VISIBILITY
.  
TC=TEMPERATURE CELSIUS  
 
* =NON NWS SITE. STATION DOES NOT REPORT PRECIPITATION (E.G. RAIN,  
SNOW, ETC.), THUNDER, OR FOG.
 
 
DCZ001-MDZ009-015-VAZ040>042-051-053>054-222300-  
WASHINGTON METRO  
 
CITY SKY/WX TMP DP RH WIND PRES REMARKS
 
WASHINGTON NAT CLOUDY 48 28 46 NW8 30.39S  
DULLES CLOUDY 44 26 49 N7 30.39S  
ANDREWS AFB FAIR 46 29 53 CALM 30.37S  
FT BELVOIR FAIR 47 27 45 NW5 30.38S  
QUANTICO CLOUDY 48 29 47 N6 30.39F  
COLLEGE PARK* FAIR 46 27 47 CALM 30.39R  
LEESBURG* FAIR 45 32 61 N5 30.40R  
MANASSAS* FAIR 45 31 58 N5 30.40R  
GAITHERSBURG* FAIR 44 29 55 NW3 30.38S  
 

 
 
MDZ006>007-011-014-222300-  
BALTIMORE METRO  
 
CITY SKY/WX TMP DP RH WIND PRES REMARKS
 
BWI AIRPORT CLOUDY 46 26 45 VRB3 30.37F  
MD SCIENCE CTR N/A 47 24 40 MISG 30.38F  
MARTIN STATE CLOUDY 46 28 49 NW5 30.41S  
ANNAPOLIS FAIR 46 28 49 E3 30.38F  
ABERDEEN* CLOUDY 43 25 49 NW5 30.40S  
FORT MEADE* FAIR 45 30 57 CALM 30.41R  
 

 
 
MDZ012-015-019>023-222300-  
MARYLAND EASTERN SHORE  
 
CITY SKY/WX TMP DP RH WIND PRES REMARKS
 
OCEAN CITY FAIR 42 32 67 NE5 30.38S  
SALISBURY FAIR 48 34 58 N5 30.37F  
BAY BRIDGE AP* FAIR 45 27 49 CALM 30.38F  
CAMBRIDGE* CLEAR 46 27 46 MISG 30.38F  
EASTON* MOCLDY 46 27 46 NW3 30.42F  
 

 
 
MDZ017>025-222300-  
SOUTHERN MARYLAND  
 
CITY SKY/WX TMP DP RH WIND PRES REMARKS
 
PATUXENT RIVER CLOUDY 46 30 53 N5 30.37F  
ST INIGOES FAIR 48 29 47 N3 30.36F  
LEONARDTOWN* FAIR 43 30 61 CALM 30.39F  
 

 
 
MDZ003>005-222300-  
NORTH CENTRAL MARYLAND  
 
CITY SKY/WX TMP DP RH WIND PRES REMARKS
 
FREDERICK* CLEAR 46 30 53 CALM 30.41S  
HAGERSTOWN APT FAIR 44 24 45 CALM 30.38S  
WESTMINSTER* FAIR 43 21 42 N3 30.37S  
 

 
 
MDZ501>502-222300-  
WESTERN MARYLAND  
 
CITY SKY/WX TMP DP RH WIND PRES REMARKS
 
OAKLAND* FAIR 34 21 60 CALM 30.31S  
CUMBERLAND* FAIR 43 27 52 CALM 30.42R  
 

 
 
VAZ025>031-222300-  
SHENANDOAH VALLEY  
 
CITY SKY/WX TMP DP RH WIND PRES REMARKS
 
WINCHESTER* FAIR 41 30 65 CALM 30.39R  
FRONT ROYAL* FAIR 41 28 60 E8 30.37R  
LURAY* FAIR 43 32 65 CALM 30.36R  
NEW MARKET* FAIR 42 29 59 N3 30.36R  
WAYNESBORO* CLOUDY 43 39 85 CALM 30.34R  
 

 
 
WVZ021-048>050-054>055-222300-  
EASTERN WEST VIRGINIA PANHANDLE  
 
CITY SKY/WX TMP DP RH WIND PRES REMARKS
 
MARTINSBURG FAIR 43 29 57 NE3 30.38R  
 

 
 
VAZ036>039-050-222300-  
CENTRAL FOOTHILLS  
 
CITY SKY/WX TMP DP RH WIND PRES REMARKS
 
CHARLOTTESVILL CLOUDY 47 36 65 CALM 30.37R  
CULPEPER* FAIR 46 30 52 NE3 30.40R  
ORANGE* CLOUDY 45 32 61 CALM 30.38R  
GORDONSVILLE* CLOUDY 46 34 64 CALM 30.38R  
WARRENTON* FAIR 46 29 49 N5 30.38R  
 

 
 
VAZ055>057-222300-  
NORTH AND CENTRAL PIEDMONT  
 
CITY SKY/WX TMP DP RH WIND PRES REMARKS
 
FREDERICKSBRG* MOCLDY 48 32 53 NE3 30.38R  
STAFFORD* FAIR 47 32 56 NW3 30.43R  
 

 
 
NCZ024-NYZ072-PAZ021-071-VAZ022-071-222300-  
OTHER REGIONAL OBSERVATIONS  
 
CITY SKY/WX TMP DP RH WIND PRES REMARKS
 
NEW YORK CITY FAIR 43 21 41 MISG 30.38S  
PHILADELPHIA CLOUDY 45 24 43 N7 30.38S  
PITTSBURGH CLOUDY 41 25 53 NE3 30.38R  
ROANOKE RAIN 44 42 93 SE7 30.38R FOG  
RICHMOND CLOUDY 47 40 76 S3 30.39R  
RALEIGH LGT RAIN 45 41 86 NE8 30.37R  
 

 
 
ANZ530>537-222300-  
MARINE OBSERVATIONS  
 
STATION/POSITION TIME TEMP WIND PRES
 
AIR SEA DIR/SP/G  
(UTC) (F) (DEG/KT/KT) (MB)  
THOMAS PT LIGHT 2200 43 38 60/ 3/ 4 1029.6F  
BALT KEY BRIDGE 2142 44 CALM / 1 1029.0F  
COVE POINT 2142 42 360/ 4/ 5 N/A  
LEWISETTA 2142 44 41 40/ 4/ 5 1028.4F  
SOLOMONS ISLAND 2142 45 40 20/ 4/ 5 1028.5F  
PINEY POINT 2142 70/ 4/ 6 N/A  
 

 
 
 
 
CLICK HERE TO GO TO PREVIOUS BULLETINS.

The Nexlab VA Page
The Nexlab MD Page
The Nexlab WV Page Main Text Page